Dewpoint
13 13 13 13 12 12 11 11 11 11 11 11 11 11 11 11 11 10 10 10 11 11 10 9 9 9 9 9 8 7 5 2 -1 -2 -4 -6 -8 -10 -14 -18 -24 -27
13 13 13 13 12 12 12 12 12 11 11 11 11 11 11 11 11 10 10 11 11 11 10 9 9 9 8 7 7 5 2 -1 -2 -5 -8 -12 -17 -22 -27 -30 -32 -32
12 13 13 13 12 12 12 12 12 12 12 12 12 11 11 11 11 11 11 11 11 10 9 9 9 8 7 6 5 2 -2 -3 -5 -10 -16 -23 -29 -30 -33 -33 -32 -33
12 13 13 13 12 12 12 12 13 12 12 12 12 12 12 11 11 11 11 11 11 10 10 9 8 7 6 5 3 -1 -4 -5 -10 -18 -26 -31 -33 -32 -33 -33 -32 -32
12 13 13 13 13 13 13 13 13 12 12 12 12 12 12 11 11 11 11 11 11 10 9 8 7 6 5 4 1 -2 -4 -7 -13 -22 -31 -33 -33 -33 -33 -31 -32 -32
12 13 13 13 13 13 13 13 13 12 12 12 12 12 11 11 11 11 11 11 11 10 9 7 7 6 5 4 1 -2 -4 -9 -16 -25 -32 -33 -33 -32 -32 -32 -31 -31
12 13 13 13 13 13 13 13 13 13 13 12 12 12 11 11 11 11 11 11 11 10 8 7 6 6 5 3 0 -2 -5 -10 -19 -29 -32 -32 -34 -32 -32 -32 -30 -31
11 13 13 13 14 13 13 13 13 13 13 13 12 12 11 11 11 11 11 11 10 9 8 7 6 6 4 2 -1 -3 -7 -12 -22 -34 -34 -32 -34 -31 -32 -33 -30 -32
12 13 13 13 14 13 13 13 13 13 13 12 12 12 11 11 11 11 11 11 10 8 8 7 6 5 3 0 -2 -5 -10 -18 -28 -34 -33 -33 -32 -33 -31 -32 -30 -31
12 13 13 13 13 13 13 13 13 13 13 12 12 12 11 11 11 11 11 10 9 8 8 7 6 5 2 -0 -3 -8 -15 -26 -33 -33 -33 -33 -32 -32 -32 -31 -32 -31
13 13 13 13 13 13 13 13 13 13 12 12 12 11 11 11 11 11 11 10 9 8 7 6 6 4 2 -1 -6 -13 -23 -30 -32 -32 -33 -32 -31 -31 -31 -31 -31 -30
14 13 13 13 13 13 13 13 13 12 12 12 12 11 11 11 11 11 10 9 8 8 7 6 5 4 1 -4 -9 -17 -27 -32 -32 -31 -31 -32 -31 -30 -30 -30 -30 -30
14 13 13 13 13 13 13 13 12 12 12 12 11 11 11 11 11 11 10 9 9 8 7 6 5 3 -1 -6 -14 -23 -30 -31 -31 -31 -31 -31 -31 -30 -29 -29 -29 -29
14 13 13 13 13 13 13 12 12 12 12 12 11 11 11 11 11 11 10 9 9 8 7 5 4 2 -2 -8 -16 -26 -30 -31 -31 -30 -31 -31 -30 -30 -30 -30 -30 -30
14 14 14 13 13 13 13 12 12 12 12 11 11 11 11 11 11 11 10 9 9 8 6 5 3 1 -3 -9 -17 -24 -28 -30 -31 -30 -32 -32 -30 -30 -30 -29 -30 -29
13 14 14 14 13 13 13 12 12 12 12 11 11 11 11 11 11 11 10 9 9 8 6 4 3 -0 -5 -11 -17 -23 -27 -29 -30 -30 -30 -30 -30 -31 -30 -30 -29 -29
14 14 14 13 13 13 13 13 13 12 11 11 11 11 11 11 11 10 10 9 9 8 6 5 3 -1 -6 -11 -17 -22 -25 -27 -28 -28 -29 -29 -29 -30 -28 -28 -28 -28
13 14 14 13 13 13 13 13 13 12 11 11 11 11 11 11 11 10 10 10 9 7 6 4 2 -2 -7 -12 -16 -21 -23 -23 -23 -23 -25 -25 -26 -27 -26 -26 -27 -27
14 14 13 13 13 13 13 13 13 12 11 11 11 11 11 11 10 10 10 9 9 7 6 4 2 -2 -7 -11 -15 -17 -18 -19 -18 -18 -20 -21 -22 -24 -22 -22 -23 -25
14 13 13 12 13 13 13 13 12 11 11 11 11 11 11 11 10 10 10 9 8 8 6 4 2 -1 -5 -9 -11 -13 -14 -14 -13 -13 -14 -15 -16 -17 -18 -18 -18 -19
13 13 13 13 13 13 13 12 12 11 11 11 11 11 10 10 10 10 10 9 9 8 6 5 3 1 -3 -6 -8 -10 -10 -10 -9 -9 -10 -10 -11 -11 -11 -11 -11 -12
13 13 13 13 13 13 12 12 12 11 11 11 11 10 10 10 10 10 10 9 9 8 7 6 5 3 -0 -3 -6 -7 -7 -7 -8 -7 -7 -7 -7 -7 -7 -8 -8 -11
13 13 13 13 13 13 12 12 12 11 11 11 10 10 10 10 9 9 9 9 9 8 7 7 7 6 3 -0 -4 -5 -6 -7 -6 -6 -5 -5 -4 -6 -9 -11 -12 -15
13 13 14 13 13 13 12 12 12 11 11 11 11 10 10 10 9 9 9 9 9 8 8 7 7 7 5 3 -1 -4 -5 -5 -5 -5 -4 -3 -3 -6 -13 -16 -14 -15
13 13 13 13 13 13 12 12 11 11 10 10 10 10 10 10 10 9 9 9 9 8 8 7 7 6 5 4 1 -2 -3 -4 -4 -3 -2 -3 -4 -7 -11 -14 -13 -14
13 13 13 13 12 12 12 12 11 11 10 10 10 10 10 10 10 9 9 9 9 8 8 7 6 5 4 3 2 -1 -2 -3 -3 -2 -2 -4 -6 -8 -9 -11 -13 -14
Wind_Speed
39 38 36 35 33 31 30 30 29 28 27 26 24 21 20 21 22 21 20 19 18 17 15 15 15 15 15 13 12 13 13 13 12 11 11 11 10 9 9 9 9 9
39 37 35 34 32 31 30 30 29 28 26 25 22 20 19 21 21 20 20 20 19 16 15 15 15 15 14 11 12 13 13 12 12 11 11 9 8 8 8 8 9 9
39 37 35 33 32 31 30 29 29 28 26 24 22 20 19 20 20 20 20 20 18 16 15 15 14 14 12 11 12 12 12 11 11 11 9 8 8 8 9 9 9 8
39 37 35 32 30 30 30 29 29 28 26 23 21 21 20 19 20 20 20 19 18 16 15 15 14 13 11 11 11 12 12 11 10 9 8 8 8 9 10 10 9 8
39 37 35 32 30 30 30 29 29 28 26 22 20 20 20 20 20 20 20 19 18 16 15 16 15 14 12 11 12 12 11 10 9 8 7 8 10 11 10 9 9 9
38 36 34 32 31 30 30 30 28 27 25 22 20 20 20 20 20 20 19 19 17 16 16 16 15 14 13 12 12 12 10 9 9 8 9 10 11 11 11 10 9 9
39 37 35 33 31 31 31 30 29 27 24 22 21 20 20 21 21 19 19 18 17 16 16 15 15 14 14 13 13 12 10 10 10 10 11 12 12 12 11 11 11 10
38 36 35 33 32 31 31 31 29 27 24 22 21 20 20 21 20 19 18 17 17 16 16 16 16 14 14 14 13 12 11 12 12 12 13 13 13 12 12 12 11 10
37 36 35 34 32 32 32 31 29 27 24 21 20 20 21 21 20 18 18 17 17 16 16 15 15 14 14 13 13 12 13 13 13 13 13 13 13 13 12 11 10 10
36 35 35 34 33 33 32 30 29 26 23 20 19 20 22 21 19 19 18 17 17 17 15 14 14 14 14 13 13 13 13 13 13 13 14 14 13 12 11 10 10 10
36 35 35 33 33 33 31 29 27 25 23 21 20 21 23 21 20 20 19 18 18 17 14 13 13 13 14 14 14 15 14 14 14 14 15 14 13 11 10 10 10 10
37 36 34 33 33 32 31 29 27 25 24 22 21 22 23 22 21 20 19 19 19 16 13 12 12 13 14 15 15 16 15 15 15 15 15 14 13 12 11 11 11 12
37 36 34 33 32 32 30 28 27 26 25 22 20 23 23 22 22 20 19 19 17 15 13 13 13 13 15 16 16 17 16 16 16 16 16 15 14 13 13 13 13 13
37 35 33 32 32 31 30 28 27 27 24 20 20 23 24 22 22 20 19 18 16 14 14 14 14 14 16 17 17 17 17 16 16 16 16 16 15 15 15 15 15 15
36 35 34 32 31 32 30 27 27 27 23 20 21 23 24 23 22 21 19 17 15 14 15 15 15 15 16 17 17 17 17 17 17 17 17 17 17 16 16 16 16 16
36 36 35 32 31 31 29 26 27 27 24 20 22 24 24 24 23 21 20 17 15 16 16 16 15 15 15 16 16 16 16 17 17 17 17 18 18 18 17 17 17 16
36 37 37 35 32 30 28 27 29 28 24 21 23 25 26 25 23 22 20 18 17 17 17 15 14 14 15 16 16 16 16 17 17 18 18 18 18 18 18 17 17 16
37 38 37 35 32 30 29 30 31 28 23 22 26 28 28 26 24 22 20 19 18 18 16 14 13 14 15 16 16 16 16 17 18 18 18 18 18 18 18 17 17 16
39 37 34 34 33 30 30 32 31 27 23 24 28 29 28 26 24 22 20 19 18 17 15 13 12 13 15 16 16 16 16 17 18 19 18 18 18 18 18 17 16 15
38 36 34 35 34 32 32 32 29 26 24 25 29 30 29 27 24 22 20 18 17 15 13 11 11 12 14 14 15 15 16 17 18 18 18 18 18 18 18 16 15 14
38 35 36 39 37 33 31 30 28 26 25 27 31 31 29 26 24 22 20 17 15 13 12 10 9 10 12 13 14 15 16 18 19 19 19 19 18 18 17 15 14 13
38 35 40 43 39 33 29 28 29 28 26 28 32 30 28 26 24 22 19 16 14 13 11 8 7 8 11 12 14 15 16 18 18 19 20 20 19 19 17 16 15 14
37 37 41 42 37 31 28 28 29 28 27 30 32 30 29 27 24 21 19 15 13 13 11 8 6 8 10 12 14 15 16 17 18 20 20 20 20 19 18 18 18 17
38 37 40 41 37 31 28 28 28 27 28 32 33 30 29 26 22 20 18 16 14 14 13 9 7 8 10 12 14 15 16 17 18 19 20 20 21 20 20 20 19 17
37 36 39 40 36 29 27 27 27 27 29 33 33 29 28 26 22 20 18 16 15 15 14 12 9 10 11 12 14 16 17 17 18 19 20 21 21 21 21 21 20 18
36 38 40 38 31 26 24 25 25 27 30 34 33 30 28 27 24 20 17 17 17 17 16 14 12 12 13 13 14 16 18 18 18 20 21 21 20 20 21 22 20 19
Wind_Direction
219 221 223 225 226 227 228 230 233 235 236 236 236 237 235 234 236 237 239 241 241 243 245 248 252 256 258 256 255 253 247 242 241 241 242 243 246 250 254 253 247 238
219 221 223 225 225 226 228 231 235 238 239 238 238 238 235 234 236 237 239 240 241 242 245 249 252 255 256 250 244 243 239 237 238 238 237 237 242 245 244 238 230 227
220 221 222 223 224 226 228 231 234 238 239 238 238 236 233 234 236 236 237 237 238 240 243 247 249 250 250 242 235 235 235 235 235 234 231 230 233 231 227 222 218 218
219 221 222 223 224 226 229 231 232 234 236 236 235 233 231 233 235 233 232 233 235 237 239 242 243 243 245 241 233 230 231 233 231 227 225 227 224 218 216 215 213 215
218 220 222 223 225 227 230 233 233 234 234 233 230 230 229 231 230 227 227 229 233 234 234 236 238 237 240 240 233 231 234 235 233 226 224 224 219 213 212 214 214 216
218 220 221 223 225 228 231 233 234 235 234 231 228 227 226 227 225 222 225 228 231 232 230 231 235 235 238 238 233 233 236 238 237 231 224 221 218 214 213 215 218 217
217 219 221 223 226 229 232 233 233 233 231 230 228 226 225 224 221 218 222 228 231 229 227 229 233 235 237 236 232 232 235 234 234 230 223 219 217 217 217 217 217 217
217 219 221 223 226 229 231 232 232 229 227 229 229 229 227 221 217 216 219 226 231 231 230 231 232 233 234 234 232 232 234 232 230 225 222 219 218 219 220 218 216 217
218 220 221 222 225 228 230 231 230 228 227 228 231 231 225 216 213 215 219 224 229 233 235 234 233 232 231 232 233 233 233 231 227 224 221 222 222 221 221 220 218 219
218 220 220 222 225 226 228 229 228 227 227 229 233 231 220 210 208 212 218 224 228 232 235 233 233 233 231 231 231 231 231 229 227 224 220 222 224 223 224 224 223 225
219 220 220 222 224 224 226 227 225 226 228 231 232 224 211 206 207 210 215 221 227 232 234 232 233 235 233 232 229 227 226 226 227 224 220 220 221 223 227 228 228 229
219 220 221 223 224 224 225 224 223 225 230 233 227 214 206 205 208 212 216 221 227 232 231 230 232 233 232 231 229 227 224 221 222 222 221 220 219 222 226 227 229 229
220 221 223 222 223 225 225 222 222 226 232 234 223 209 204 205 207 213 219 224 228 230 228 228 229 229 229 228 227 226 224 221 219 219 221 220 220 221 223 225 228 229
220 223 223 222 224 226 224 221 222 227 233 233 219 207 204 206 209 214 220 224 228 227 226 227 226 225 226 224 224 224 224 223 221 220 221 220 220 221 222 225 226 228
219 222 221 221 224 224 221 223 225 228 233 229 215 206 205 207 211 216 222 226 228 225 224 224 224 224 223 223 224 224 224 224 223 223 223 222 222 222 223 225 225 226
217 219 219 220 224 224 225 228 225 228 234 225 211 207 207 208 211 215 221 226 229 228 226 224 223 223 221 222 225 227 227 227 225 224 225 224 225 227 228 227 225 224
216 219 219 218 221 224 229 229 222 227 234 222 209 209 209 209 211 216 221 226 230 230 228 226 224 222 220 220 223 226 228 230 229 228 227 227 227 231 233 231 227 223
215 217 218 218 217 221 227 224 219 227 233 218 209 209 208 209 213 217 222 227 229 228 226 226 224 222 221 221 222 225 227 230 232 232 232 231 231 232 233 233 231 224
214 214 217 220 219 220 223 218 217 229 231 216 208 208 209 211 215 218 222 226 229 228 225 222 222 222 222 223 224 227 228 230 233 235 236 235 235 234 233 234 234 228
212 214 218 220 219 219 217 215 220 233 231 215 208 207 209 212 215 218 222 225 228 228 225 222 223 224 225 226 227 229 231 233 235 237 237 237 237 237 238 239 237 234
212 215 219 217 214 213 215 218 227 234 229 214 207 207 209 213 216 219 223 227 229 227 225 224 225 229 231 232 232 232 233 235 237 237 236 236 238 239 242 243 240 237
212 216 219 215 208 206 213 222 227 231 227 214 206 207 211 214 218 221 225 231 232 228 225 225 234 242 239 237 236 234 233 235 236 236 235 235 237 238 238 239 237 234
213 216 217 212 205 206 216 222 225 230 227 213 206 207 210 214 219 221 227 234 234 233 231 226 241 259 253 244 239 235 235 235 234 234 235 236 237 238 237 237 237 237
213 214 215 211 205 210 220 222 226 234 226 211 207 209 211 217 222 223 229 235 237 239 238 229 242 266 262 252 244 238 237 238 237 237 237 237 238 239 239 238 238 238
212 215 218 212 205 209 219 223 230 237 225 210 208 211 216 220 221 223 231 237 239 242 239 232 239 252 255 255 249 242 239 239 239 239 238 238 240 242 243 243 239 236
216 217 215 209 205 211 220 226 235 234 219 209 208 212 218 220 218 224 237 238 238 241 238 236 241 244 247 252 251 245 242 240 240 241 242 246 248 248 247 247 243 236
Height
1503 1506 1508 1511 1514 1516 1518 1519 1521 1523 1524 1526 1528 1530 1532 1533 1534 1535 1536 1537 1538 1539 1540 1541 1541 1541 1542 1542 1543 1543 1544 1544 1544 1545 1545 1546 1546 1546 1547 1548 1549 1550
1501 1504 1507 1510 1512 1514 1516 1518 1520 1521 1523 1525 1527 1529 1530 1532 1533 1534 1535 1536 1537 1538 1539 1540 1540 1540 1540 1541 1542 1542 1542 1543 1544 1544 1545 1545 1545 1546 1546 1547 1548 1549
1499 1503 1505 1508 1511 1513 1515 1517 1519 1520 1522 1524 1525 1527 1529 1530 1531 1533 1534 1535 1536 1537 1538 1538 1539 1539 1539 1539 1540 1541 1541 1542 1543 1544 1544 1544 1544 1545 1546 1547 1548 1548
1498 1501 1504 1507 1509 1512 1513 1515 1517 1518 1520 1522 1524 1526 1527 1529 1530 1531 1532 1534 1535 1536 1537 1537 1537 1537 1538 1538 1539 1539 1540 1541 1542 1542 1543 1543 1544 1544 1545 1546 1547 1548
1496 1499 1503 1506 1508 1510 1511 1513 1515 1516 1518 1520 1522 1524 1525 1527 1528 1530 1531 1532 1534 1535 1535 1535 1536 1536 1537 1537 1538 1539 1539 1540 1541 1541 1542 1542 1543 1544 1545 1546 1546 1547
1495 1498 1501 1504 1506 1508 1509 1511 1513 1515 1516 1519 1520 1522 1524 1525 1527 1529 1530 1531 1533 1534 1534 1534 1535 1535 1536 1536 1537 1538 1539 1539 1540 1540 1541 1542 1543 1543 1544 1545 1546 1546
1493 1496 1499 1502 1504 1506 1507 1509 1511 1513 1515 1517 1519 1521 1522 1524 1526 1527 1529 1530 1531 1532 1533 1533 1534 1534 1535 1536 1536 1537 1538 1538 1539 1540 1541 1541 1542 1543 1544 1544 1545 1546
1491 1495 1498 1500 1502 1504 1505 1507 1509 1510 1513 1515 1517 1519 1520 1522 1524 1526 1528 1529 1530 1531 1532 1532 1533 1533 1534 1535 1535 1536 1537 1538 1538 1539 1540 1541 1542 1543 1543 1544 1544 1545
1489 1493 1496 1498 1501 1502 1503 1505 1507 1509 1511 1513 1515 1517 1519 1521 1523 1525 1526 1527 1528 1529 1530 1531 1532 1532 1533 1534 1535 1535 1536 1537 1538 1539 1540 1541 1541 1542 1543 1543 1544 1545
1488 1491 1494 1496 1498 1500 1501 1504 1506 1507 1510 1512 1514 1515 1517 1520 1522 1524 1525 1526 1527 1528 1529 1530 1530 1531 1532 1533 1534 1534 1535 1536 1537 1538 1539 1540 1541 1542 1542 1543 1544 1545
1486 1489 1491 1494 1496 1498 1500 1503 1505 1506 1508 1510 1512 1514 1516 1519 1521 1522 1524 1525 1526 1527 1528 1529 1529 1530 1531 1532 1533 1534 1535 1536 1537 1538 1539 1540 1541 1542 1542 1543 1544 1545
1483 1486 1489 1492 1494 1497 1499 1501 1503 1505 1507 1508 1510 1512 1515 1517 1519 1521 1522 1524 1525 1526 1527 1528 1528 1529 1530 1531 1532 1533 1534 1535 1536 1537 1538 1539 1540 1541 1542 1543 1544 1545
1481 1484 1487 1490 1493 1495 1498 1500 1502 1503 1505 1506 1508 1511 1513 1516 1518 1520 1521 1523 1524 1525 1526 1527 1527 1528 1530 1530 1531 1532 1533 1534 1535 1536 1538 1539 1540 1541 1542 1543 1544 1544
1479 1483 1486 1489 1491 1493 1496 1498 1500 1502 1503 1505 1507 1509 1512 1515 1517 1519 1520 1521 1523 1524 1525 1525 1526 1527 1528 1529 1530 1531 1532 1533 1534 1535 1537 1538 1539 1540 1541 1542 1543 1544
1478 1481 1484 1487 1490 1491 1494 1496 1499 1500 1502 1504 1506 1508 1511 1513 1516 1517 1519 1520 1521 1522 1523 1524 1525 1526 1527 1528 1529 1530 1531 1532 1533 1535 1536 1537 1538 1539 1540 1541 1542 1543
1476 1479 1482 1485 1488 1490 1492 1495 1497 1499 1500 1502 1504 1507 1509 1512 1514 1516 1517 1518 1520 1521 1522 1522 1523 1524 1525 1527 1528 1529 1530 1532 1533 1534 1535 1536 1538 1538 1539 1540 1541 1542
1474 1477 1479 1482 1485 1489 1491 1493 1495 1497 1499 1501 1503 1505 1508 1510 1512 1514 1515 1517 1518 1519 1520 1521 1522 1523 1524 1526 1527 1528 1530 1531 1532 1533 1534 1536 1537 1538 1539 1540 1541 1542
1471 1475 1477 1480 1482 1486 1489 1491 1493 1495 1497 1499 1501 1503 1506 1508 1511 1512 1514 1515 1517 1518 1519 1519 1520 1522 1523 1525 1526 1528 1529 1530 1531 1532 1533 1535 1536 1537 1539 1539 1540 1541
1469 1472 1476 1478 1481 1484 1487 1489 1491 1493 1495 1497 1499 1502 1504 1507 1509 1511 1512 1514 1515 1516 1517 1518 1519 1521 1522 1524 1525 1527 1528 1529 1530 1532 1533 1535 1536 1537 1538 1539 1540 1541
1466 1470 1474 1476 1479 1482 1484 1486 1489 1491 1493 1495 1497 1500 1502 1505 1507 1509 1510 1512 1514 1515 1516 1517 1519 1520 1521 1523 1524 1526 1527 1528 1529 1531 1532 1534 1535 1536 1537 1538 1540 1541
1464 1468 1471 1473 1476 1479 1482 1485 1487 1489 1491 1493 1495 1498 1501 1503 1505 1507 1509 1511 1513 1514 1515 1516 1518 1519 1521 1522 1524 1525 1526 1527 1528 1530 1531 1533 1534 1535 1537 1538 1539 1540
1461 1465 1467 1469 1472 1476 1480 1482 1485 1486 1489 1491 1494 1497 1500 1502 1504 1506 1508 1510 1512 1513 1514 1516 1517 1519 1520 1521 1523 1524 1525 1526 1527 1529 1530 1531 1533 1534 1535 1536 1537 1538
1458 1462 1464 1467 1470 1474 1477 1480 1483 1485 1487 1490 1492 1495 1498 1500 1503 1505 1507 1509 1511 1512 1513 1515 1516 1518 1519 1521 1522 1523 1524 1525 1526 1527 1529 1530 1531 1533 1533 1534 1534 1535
1456 1459 1462 1465 1468 1471 1475 1478 1481 1483 1485 1488 1491 1494 1496 1499 1502 1504 1506 1508 1510 1511 1512 1514 1515 1517 1519 1520 1521 1522 1523 1524 1525 1526 1527 1529 1530 1531 1531 1531 1533 1534
1455 1458 1460 1463 1465 1469 1474 1477 1479 1481 1484 1487 1490 1493 1496 1499 1501 1503 1505 1507 1508 1510 1511 1513 1514 1516 1517 1518 1519 1520 1521 1523 1524 1525 1526 1527 1528 1528 1529 1530 1531 1532
1454 1456 1458 1460 1464 1469 1473 1476 1478 1480 1482 1486 1489 1492 1495 1498 1500 1502 1504 1505 1507 1508 1509 1511 1513 1514 1516 1517 1518 1519 1520 1521 1522 1523 1524 1525 1526 1526 1527 1528 1530 1531